| time (UTC) | temp F | wind direction | speed MPH | gust MPH | rain 1hr in | rain 24hr in | rain mn in | humidity % | barometer mb |
| 20260506123558 | 55 | 121 | 4.0 | 10.0 | 0.00 | 0.00 | 0.00 | 76 | 1014.8 |
| 20260506123057 | 56 | 2 | 6.0 | 11.0 | 0.00 | 0.00 | 0.00 | 76 | 1014.9 |
| 20260506122553 | 56 | 317 | 6.0 | 13.0 | 0.00 | 0.00 | 0.00 | 75 | 1014.7 |
| 20260506122052 | 56 | 306 | 6.0 | 9.0 | 0.00 | 0.00 | 0.00 | 75 | 1014.6 |
| 20260506121549 | 56 | 11 | 3.0 | 7.0 | 0.00 | 0.00 | 0.00 | 76 | 1014.4 |
| 20260506121044 | 56 | 301 | 1.0 | 7.0 | 0.00 | 0.00 | 0.00 | 76 | 1014.4 |
| 20260506120543 | 56 | 56 | 2.0 | 7.0 | 0.00 | 0.00 | 0.00 | 76 | 1014.2 |
| 20260506120040 | 56 | 11 | 6.0 | 9.0 | 0.00 | 0.00 | 0.00 | 76 | 1014.6 |
| 20260506115538 | 57 | 330 | 5.0 | 8.0 | 0.00 | 0.00 | 0.00 | 76 | 1014.3 |
| 20260506115036 | 57 | 54 | 2.0 | 7.0 | 0.00 | 0.00 | 0.00 | 76 | 1014.5 |
| 20260506114533 | 57 | 304 | 5.0 | 7.0 | 0.00 | 0.00 | 0.00 | 76 | 1014.4 |
| 20260506114032 | 57 | 10 | 1.0 | 8.0 | 0.00 | 0.00 | 0.00 | 75 | 1014.2 |
| 20260506113529 | 57 | 302 | 6.0 | 10.0 | 0.00 | 0.00 | 0.00 | 75 | 1014.1 |
| 20260506113026 | 57 | 355 | 6.0 | 11.0 | 0.00 | 0.00 | 0.00 | 75 | 1014.1 |
| 20260506112522 | 57 | 47 | 6.0 | 8.0 | 0.00 | 0.00 | 0.00 | 75 | 1013.9 |
| 20260506112020 | 57 | 72 | 2.0 | 7.0 | 0.00 | 0.00 | 0.00 | 75 | 1013.6 |
| 20260506111518 | 58 | 36 | 4.0 | 6.0 | 0.00 | 0.00 | 0.00 | 75 | 1013.6 |
| 20260506111015 | 58 | 253 | 4.0 | 7.0 | 0.00 | 0.00 | 0.00 | 75 | 1013.2 |
| 20260506110513 | 58 | 342 | 3.0 | 6.0 | 0.00 | 0.00 | 0.00 | 74 | 1013.5 |
| 20260506110010 | 58 | 129 | 1.0 | 10.0 | 0.00 | 0.00 | 0.00 | 75 | 1013.7 |
| 20260506105505 | 58 | 49 | 5.0 | 8.0 | 0.00 | 0.00 | 0.00 | 75 | 1013.4 |
| 20260506105003 | 58 | 340 | 3.0 | 7.0 | 0.00 | 0.00 | 0.00 | 75 | 1013.4 |
| 20260506104501 | 58 | 312 | 4.0 | 7.0 | 0.00 | 0.00 | 0.00 | 75 | 1013.2 |
| 20260506103959 | 58 | 317 | 5.0 | 8.0 | 0.00 | 0.00 | 0.00 | 75 | 1013.3 |
| 20260506103455 | 58 | 295 | 5.0 | 10.0 | 0.00 | 0.00 | 0.00 | 75 | 1013.2 |
| 20260506102952 | 59 | 347 | 4.0 | 7.0 | 0.00 | 0.00 | 0.00 | 75 | 1013.0 |
| 20260506102450 | 59 | 319 | 7.0 | 8.0 | 0.00 | 0.00 | 0.00 | 75 | 1012.7 |
| 20260506101948 | 59 | 309 | 6.0 | 9.0 | 0.00 | 0.00 | 0.00 | 76 | 1012.7 |
| 20260506101444 | 59 | 330 | 3.0 | 6.0 | 0.00 | 0.00 | 0.00 | 76 | 1012.4 |
| 20260506100941 | 59 | 10 | 5.0 | 7.0 | 0.00 | 0.00 | 0.00 | 75 | 1012.3 |
| 20260506100439 | 59 | 9 | 3.0 | 7.0 | 0.00 | 0.00 | 0.00 | 75 | 1012.3 |
| 20260506095937 | 59 | 304 | 3.0 | 5.0 | 0.00 | 0.00 | 0.00 | 75 | 1012.3 |
| 20260506095435 | 59 | 313 | 3.0 | 7.0 | 0.00 | 0.00 | 0.00 | 75 | 1012.3 |
| 20260506094931 | 60 | 9 | 6.0 | 9.0 | 0.00 | 0.00 | 0.00 | 75 | 1012.0 |
| 20260506094430 | 60 | 326 | 3.0 | 5.0 | 0.00 | 0.00 | 0.00 | 75 | 1012.3 |
| 20260506093927 | 60 | 336 | 6.0 | 8.0 | 0.00 | 0.00 | 0.00 | 75 | 1012.0 |
| 20260506093425 | 60 | 297 | 3.0 | 7.0 | 0.00 | 0.00 | 0.00 | 75 | 1012.0 |
| 20260506092923 | 60 | 295 | 3.0 | 6.0 | 0.00 | 0.00 | 0.00 | 75 | 1012.1 |
| 20260506092421 | 60 | 313 | 2.0 | 7.0 | 0.00 | 0.00 | 0.00 | 75 | 1012.0 |
| 20260506091917 | 60 | 355 | 3.0 | 8.0 | 0.00 | 0.00 | 0.00 | 75 | 1011.9 |
| 20260506091415 | 60 | 346 | 4.0 | 8.0 | 0.00 | 0.00 | 0.00 | 75 | 1012.0 |
| 20260506090912 | 61 | 247 | 3.0 | 5.0 | 0.00 | 0.00 | 0.00 | 75 | 1012.0 |
| 20260506090409 | 60 | 358 | 2.0 | 5.0 | 0.00 | 0.00 | 0.00 | 76 | 1011.8 |
| 20260506085906 | 61 | 1 | 2.0 | 8.0 | 0.00 | 0.00 | 0.00 | 76 | 1011.9 |
| 20260506085403 | 61 | 306 | 5.0 | 7.0 | 0.00 | 0.00 | 0.00 | 76 | 1011.6 |
| 20260506084859 | 61 | 291 | 4.0 | 7.0 | 0.00 | 0.00 | 0.00 | 76 | 1011.9 |
| 20260506084356 | 61 | 0 | 4.0 | 6.0 | 0.00 | 0.00 | 0.00 | 76 | 1011.7 |
| 20260506083852 | 61 | 32 | 1.0 | 5.0 | 0.00 | 0.00 | 0.00 | 76 | 1011.7 |
| 20260506083350 | 61 | 79 | 3.0 | 3.0 | 0.00 | 0.00 | 0.00 | 77 | 1011.6 |
| 20260506082847 | 61 | 336 | 2.0 | 5.0 | 0.00 | 0.00 | 0.00 | 77 | 1011.5 |
| 20260506082344 | 62 | 285 | 2.0 | 6.0 | 0.00 | 0.00 | 0.00 | 77 | 1011.5 |
| 20260506081839 | 62 | 90 | 1.0 | 5.0 | 0.00 | 0.00 | 0.00 | 77 | 1011.6 |
| 20260506081338 | 62 | 202 | 1.0 | 3.0 | 0.00 | 0.00 | 0.00 | 77 | 1011.5 |
| 20260506080835 | 62 | 101 | 1.0 | 5.0 | 0.00 | 0.00 | 0.00 | 77 | 1011.3 |
| 20260506080331 | 62 | 269 | 2.0 | 5.0 | 0.00 | 0.00 | 0.00 | 77 | 1011.3 |
| 20260506073316 | 62 | 99 | 1.0 | 6.0 | 0.00 | 0.00 | 0.00 | 78 | 1011.2 |
| 20260506072812 | 62 | 75 | 3.0 | 3.0 | 0.00 | 0.00 | 0.00 | 78 | 1011.1 |
| 20260506072310 | 62 | 70 | 2.0 | 5.0 | 0.00 | 0.00 | 0.00 | 78 | 1011.3 |
| 20260506071808 | 62 | 44 | 2.0 | 5.0 | 0.00 | 0.00 | 0.00 | 78 | 1011.3 |
| 20260506071306 | 62 | 26 | 1.0 | 5.0 | 0.00 | 0.00 | 0.00 | 78 | 1011.0 |
| 20260506070802 | 62 | 28 | 4.0 | 7.0 | 0.00 | 0.00 | 0.00 | 77 | 1011.2 |
| 20260506070259 | 62 | 101 | 3.0 | 5.0 | 0.00 | 0.00 | 0.00 | 77 | 1011.3 |
| 20260506062236 | 63 | 203 | 2.0 | 5.0 | 0.00 | 0.00 | 0.00 | 77 | 1011.0 |
| 20260506061726 | 63 | 345 | 5.0 | 7.0 | 0.00 | 0.00 | 0.00 | 77 | 1011.3 |
| 20260506061224 | 63 | 264 | 6.0 | 8.0 | 0.00 | 0.00 | 0.00 | 77 | 1011.2 |
| 20260506060723 | 63 | 69 | 3.0 | 5.0 | 0.00 | 0.00 | 0.00 | 77 | 1011.1 |
| 20260506060219 | 63 | 258 | 3.0 | 9.0 | 0.00 | 0.00 | 0.00 | 77 | 1011.0 |
| 20260506051145 | 65 | 18 | 6.0 | 9.0 | 0.00 | 0.00 | 0.00 | 76 | 1011.4 |
| 20260506050644 | 65 | 21 | 3.0 | 8.0 | 0.00 | 0.00 | 0.00 | 76 | 1011.3 |
| 20260506050140 | 65 | 306 | 6.0 | 8.0 | 0.00 | 0.00 | 0.00 | 76 | 1011.2 |
| 20260506045133 | 66 | 115 | 0.0 | 8.0 | 0.00 | 0.00 | 0.00 | 76 | 1010.8 |
| 20260506044631 | 66 | 257 | 3.0 | 7.0 | 0.00 | 0.00 | 0.00 | 75 | 1011.0 |
| 20260506044128 | 66 | 67 | 0.0 | 6.0 | 0.00 | 0.00 | 0.00 | 75 | 1010.9 |
| 20260506043625 | 66 | 348 | 5.0 | 8.0 | 0.00 | 0.00 | 0.00 | 75 | 1011.1 |
| 20260506043123 | 66 | 346 | 3.0 | 7.0 | 0.00 | 0.00 | 0.00 | 75 | 1011.2 |
| 20260506042622 | 67 | 28 | 7.0 | 9.0 | 0.00 | 0.00 | 0.00 | 74 | 1011.2 |
| 20260506042120 | 67 | 218 | 4.0 | 10.0 | 0.00 | 0.00 | 0.00 | 74 | 1011.1 |
| 20260506041618 | 68 | 0 | 4.0 | 9.0 | 0.00 | 0.00 | 0.00 | 73 | 1011.1 |
| 20260506041114 | 68 | 318 | 4.0 | 6.0 | 0.00 | 0.00 | 0.00 | 74 | 1010.8 |
| 20260506040612 | 68 | 291 | 6.0 | 11.0 | 0.00 | 0.00 | 0.00 | 74 | 1010.7 |
| 20260506040109 | 69 | 294 | 6.0 | 7.0 | 0.00 | 0.00 | 0.00 | 73 | 1010.9 |
| 20260506035606 | 69 | 353 | 7.0 | 9.0 | 0.00 | 0.00 | 0.00 | 73 | 1010.6 |
| 20260506035102 | 69 | 285 | 4.0 | 8.0 | 0.00 | 0.00 | 0.00 | 73 | 1010.2 |
| 20260506034600 | 69 | 244 | 1.0 | 5.0 | 0.00 | 0.00 | 0.00 | 73 | 1010.1 |
| 20260506034056 | 69 | 18 | 3.0 | 7.0 | 0.00 | 0.00 | 0.00 | 72 | 1010.0 |
| 20260506033554 | 70 | 319 | 5.0 | 8.0 | 0.00 | 0.00 | 0.00 | 71 | 1010.1 |
| 20260506033050 | 70 | 274 | 2.0 | 6.0 | 0.00 | 0.00 | 0.00 | 71 | 1010.0 |
| 20260506032548 | 70 | 356 | 4.0 | 13.0 | 0.00 | 0.00 | 0.00 | 70 | 1009.8 |
| 20260506032045 | 70 | 353 | 3.0 | 3.0 | 0.00 | 0.00 | 0.00 | 70 | 1009.5 |
| 20260506031542 | 70 | 308 | 3.0 | 10.0 | 0.00 | 0.00 | 0.00 | 70 | 1009.5 |
| 20260506031039 | 70 | 87 | 2.0 | 9.0 | 0.00 | 0.00 | 0.00 | 69 | 1009.5 |
| 20260506030537 | 70 | 345 | 2.0 | 7.0 | 0.00 | 0.00 | 0.00 | 70 | 1009.5 |
| 20260506030034 | 70 | 27 | 5.0 | 8.0 | 0.00 | 0.00 | 0.00 | 70 | 1009.2 |
| 20260506025531 | 70 | 345 | 3.0 | 9.0 | 0.00 | 0.00 | 0.00 | 70 | 1009.4 |
| 20260506025027 | 71 | 10 | 2.0 | 7.0 | 0.00 | 0.00 | 0.00 | 70 | 1009.4 |
| 20260506024524 | 71 | 343 | 3.0 | 8.0 | 0.00 | 0.00 | 0.00 | 70 | 1009.3 |
| 20260506024020 | 71 | 316 | 5.0 | 10.0 | 0.00 | 0.00 | 0.00 | 70 | 1009.1 |
| 20260506023516 | 72 | 349 | 7.0 | 10.0 | 0.00 | 0.00 | 0.00 | 69 | 1008.9 |
| 20260506023015 | 72 | 293 | 8.0 | 11.0 | 0.00 | 0.00 | 0.00 | 69 | 1008.8 |
| 20260506022512 | 72 | 341 | 7.0 | 11.0 | 0.00 | 0.00 | 0.00 | 68 | 1008.8 |
| 20260506022009 | 73 | 58 | 2.0 | 8.0 | 0.00 | 0.00 | 0.00 | 68 | 1008.4 |
| 20260506021506 | 73 | 264 | 5.0 | 11.0 | 0.00 | 0.00 | 0.00 | 68 | 1008.3 |
| 20260506021004 | 73 | 348 | 3.0 | 5.0 | 0.00 | 0.00 | 0.00 | 68 | 1008.1 |
| 20260506020501 | 73 | 334 | 4.0 | 10.0 | 0.00 | 0.00 | 0.00 | 68 | 1007.9 |
| 20260506015957 | 74 | 299 | 6.0 | 10.0 | 0.00 | 0.00 | 0.00 | 67 | 1007.9 |
| 20260506015455 | 74 | 9 | 3.0 | 6.0 | 0.00 | 0.00 | 0.00 | 67 | 1007.4 |
| 20260506014952 | 74 | 33 | 2.0 | 5.0 | 0.00 | 0.00 | 0.00 | 67 | 1007.4 |
| 20260506014449 | 75 | 43 | 3.0 | 8.0 | 0.00 | 0.00 | 0.00 | 67 | 1007.4 |
| 20260506013945 | 75 | 354 | 4.0 | 7.0 | 0.00 | 0.00 | 0.00 | 67 | 1007.0 |
| 20260506013444 | 75 | 307 | 2.0 | 8.0 | 0.00 | 0.00 | 0.00 | 67 | 1007.0 |
| 20260506012939 | 76 | 351 | 4.0 | 8.0 | 0.00 | 0.00 | 0.00 | 67 | 1007.1 |
| 20260506012436 | 76 | 332 | 2.0 | 7.0 | 0.00 | 0.00 | 0.00 | 66 | 1006.8 |
| 20260506011933 | 77 | 312 | 4.0 | 8.0 | 0.00 | 0.00 | 0.00 | 66 | 1006.6 |
| 20260506011431 | 77 | 54 | 3.0 | 7.0 | 0.00 | 0.00 | 0.00 | 65 | 1006.6 |
| 20260506010927 | 78 | 350 | 4.0 | 9.0 | 0.00 | 0.00 | 0.00 | 64 | 1006.7 |
| 20260506010426 | 78 | 355 | 2.0 | 5.0 | 0.00 | 0.00 | 0.00 | 63 | 1006.7 |
| 20260506005922 | 78 | 62 | 3.0 | 6.0 | 0.00 | 0.00 | 0.00 | 62 | 1006.5 |
| 20260506005420 | 79 | 23 | 4.0 | 5.0 | 0.00 | 0.00 | 0.00 | 62 | 1006.3 |
| 20260506004915 | 79 | 336 | 5.0 | 9.0 | 0.00 | 0.00 | 0.00 | 62 | 1006.3 |
| 20260506004413 | 79 | 2 | 1.0 | 5.0 | 0.00 | 0.00 | 0.00 | 62 | 1006.2 |
| 20260506003909 | 79 | 83 | 1.0 | 3.0 | 0.00 | 0.00 | 0.00 | 62 | 1006.1 |
| 20260506003405 | 79 | 313 | 2.0 | 7.0 | 0.00 | 0.00 | 0.00 | 61 | 1005.9 |
| 20260506002902 | 80 | 335 | 5.0 | 6.0 | 0.00 | 0.00 | 0.00 | 61 | 1006.0 |
| 20260506002358 | 80 | 9 | 3.0 | 7.0 | 0.00 | 0.00 | 0.00 | 61 | 1006.1 |
| 20260506001854 | 80 | 322 | 3.0 | 7.0 | 0.00 | 0.00 | 0.00 | 60 | 1006.0 |
| 20260506001351 | 81 | 25 | 4.0 | 10.0 | 0.00 | 0.00 | 0.00 | 59 | 1005.9 |
| 20260506000848 | 81 | 274 | 3.0 | 6.0 | 0.00 | 0.00 | 0.00 | 59 | 1006.0 |
| 20260506000346 | 82 | 311 | 2.0 | 7.0 | 0.00 | 0.00 | 0.00 | 58 | 1005.9 |
| 20260505235842 | 82 | 252 | 3.0 | 3.0 | 0.00 | 0.00 | 0.00 | 58 | 1005.9 |
| 20260505235340 | 82 | 252 | 3.0 | 6.0 | 0.00 | 0.00 | 0.00 | 57 | 1005.9 |
| 20260505234836 | 82 | 357 | 3.0 | 6.0 | 0.00 | 0.00 | 0.00 | 57 | 1005.6 |
| 20260505234335 | 83 | 24 | 7.0 | 9.0 | 0.00 | 0.00 | 0.00 | 57 | 1005.6 |
| 20260505233831 | 83 | 11 | 3.0 | 9.0 | 0.00 | 0.00 | 0.00 | 57 | 1005.5 |
| 20260505233329 | 84 | 7 | 3.0 | 9.0 | 0.00 | 0.00 | 0.00 | 57 | 1005.3 |
| 20260505232826 | 85 | 295 | 6.0 | 11.0 | 0.00 | 0.00 | 0.00 | 56 | 1005.4 |
| 20260505232324 | 87 | 13 | 3.0 | 7.0 | 0.00 | 0.00 | 0.00 | 52 | 1005.2 |
| 20260505231820 | 87 | 277 | 5.0 | 6.0 | 0.00 | 0.00 | 0.00 | 50 | 1005.3 |
| 20260505231318 | 87 | 273 | 3.0 | 5.0 | 0.00 | 0.00 | 0.00 | 49 | 1005.0 |
| 20260505230816 | 88 | 123 | 1.0 | 2.0 | 0.00 | 0.00 | 0.00 | 50 | 1005.0 |
| 20260505230313 | 88 | 273 | 3.0 | 6.0 | 0.00 | 0.00 | 0.00 | 49 | 1004.8 |
| 20260505225809 | 88 | 353 | 5.0 | 7.0 | 0.00 | 0.00 | 0.00 | 48 | 1004.8 |
| 20260505225307 | 88 | 264 | 2.0 | 6.0 | 0.00 | 0.00 | 0.00 | 47 | 1004.7 |
| 20260505224802 | 89 | 18 | 3.0 | 8.0 | 0.00 | 0.00 | 0.00 | 47 | 1004.6 |
| 20260505224300 | 92 | 301 | 4.0 | 7.0 | 0.00 | 0.00 | 0.00 | 46 | 1004.3 |
| 20260505223757 | 93 | 126 | 0.0 | 3.0 | 0.00 | 0.00 | 0.00 | 48 | 1004.4 |
| 20260505223254 | 94 | 126 | 0.0 | 1.0 | 0.00 | 0.00 | 0.00 | 45 | 1004.4 |
| 20260505222749 | 94 | 145 | 0.0 | 3.0 | 0.00 | 0.00 | 0.00 | 43 | 1004.5 |
| 20260505222246 | 95 | 168 | 1.0 | 2.0 | 0.00 | 0.00 | 0.00 | 43 | 1004.3 |
| 20260505221743 | 95 | 179 | 1.0 | 2.0 | 0.00 | 0.00 | 0.00 | 44 | 1004.3 |
| 20260505221240 | 95 | 207 | 1.0 | 5.0 | 0.00 | 0.00 | 0.00 | 44 | 1004.3 |
| 20260505220736 | 94 | 177 | 1.0 | 2.0 | 0.00 | 0.00 | 0.00 | 44 | 1004.1 |
| 20260505220234 | 93 | 188 | 1.0 | 3.0 | 0.00 | 0.00 | 0.00 | 45 | 1004.4 |
| 20260505215732 | 94 | 166 | 0.0 | 1.0 | 0.00 | 0.00 | 0.00 | 44 | 1004.1 |
| 20260505215229 | 93 | 149 | 1.0 | 3.0 | 0.00 | 0.00 | 0.00 | 46 | 1004.1 |
| 20260505214727 | 93 | 335 | 1.0 | 7.0 | 0.00 | 0.00 | 0.00 | 45 | 1004.2 |
| 20260505214224 | 93 | 158 | 1.0 | 2.0 | 0.00 | 0.00 | 0.00 | 44 | 1004.2 |
| 20260505213721 | 93 | 148 | 1.0 | 7.0 | 0.00 | 0.00 | 0.00 | 45 | 1004.4 |
| 20260505213219 | 93 | 144 | 1.0 | 3.0 | 0.00 | 0.00 | 0.00 | 45 | 1004.4 |
| 20260505212714 | 93 | 133 | 0.0 | 1.0 | 0.00 | 0.00 | 0.00 | 47 | 1004.3 |
| 20260505212212 | 92 | 92 | 1.0 | 1.0 | 0.00 | 0.00 | 0.00 | 47 | 1004.4 |
| 20260505211708 | 92 | 112 | 1.0 | 2.0 | 0.00 | 0.00 | 0.00 | 46 | 1004.5 |
| 20260505211206 | 92 | 134 | 1.0 | 6.0 | 0.00 | 0.00 | 0.00 | 45 | 1004.6 |
| 20260505210702 | 92 | 192 | 1.0 | 2.0 | 0.00 | 0.00 | 0.00 | 45 | 1004.7 |
| 20260505210159 | 93 | 154 | 1.0 | 2.0 | 0.00 | 0.00 | 0.00 | 47 | 1004.7 |
| 20260505205657 | 92 | 143 | 1.0 | 1.0 | 0.00 | 0.00 | 0.00 | 47 | 1004.9 |
| 20260505205155 | 93 | 111 | 1.0 | 5.0 | 0.00 | 0.00 | 0.00 | 48 | 1005.0 |
| 20260505204651 | 93 | 251 | 3.0 | 6.0 | 0.00 | 0.00 | 0.00 | 48 | 1005.3 |
| 20260505204149 | 92 | 128 | 1.0 | 1.0 | 0.00 | 0.00 | 0.00 | 52 | 1005.0 |
| 20260505203646 | 93 | 224 | 2.0 | 3.0 | 0.00 | 0.00 | 0.00 | 50 | 1004.9 |
| 20260505203142 | 92 | 158 | 1.0 | 2.0 | 0.00 | 0.00 | 0.00 | 51 | 1005.0 |
| 20260505202638 | 91 | 180 | 1.0 | 3.0 | 0.00 | 0.00 | 0.00 | 51 | 1005.2 |
| 20260505202134 | 91 | 184 | 2.0 | 3.0 | 0.00 | 0.00 | 0.00 | 52 | 1005.4 |
| 20260505201625 | 90 | 160 | 1.0 | 3.0 | 0.00 | 0.00 | 0.00 | 53 | 1005.5 |
| 20260505201118 | 90 | 189 | 2.0 | 3.0 | 0.00 | 0.00 | 0.00 | 54 | 1005.5 |
| 20260505200615 | 90 | 116 | 1.0 | 2.0 | 0.00 | 0.00 | 0.00 | 54 | 1005.4 |
| 20260505200112 | 90 | 147 | 2.0 | 2.0 | 0.00 | 0.00 | 0.00 | 55 | 1005.2 |
| 20260505195608 | 90 | 203 | 2.0 | 3.0 | 0.00 | 0.00 | 0.00 | 54 | 1005.6 |
| 20260505195106 | 91 | 225 | 1.0 | 2.0 | 0.00 | 0.00 | 0.00 | 53 | 1005.4 |
| 20260505194602 | 91 | 186 | 2.0 | 3.0 | 0.00 | 0.00 | 0.00 | 54 | 1005.5 |
| 20260505194052 | 90 | 122 | 1.0 | 6.0 | 0.00 | 0.00 | 0.00 | 54 | 1005.6 |
| 20260505193550 | 90 | 162 | 3.0 | 6.0 | 0.00 | 0.00 | 0.00 | 53 | 1005.5 |
| 20260505193046 | 89 | 215 | 2.0 | 5.0 | 0.00 | 0.00 | 0.00 | 55 | 1005.6 |
| 20260505192545 | 89 | 260 | 3.0 | 5.0 | 0.00 | 0.00 | 0.00 | 56 | 1005.7 |
| 20260505192042 | 89 | 239 | 3.0 | 5.0 | 0.00 | 0.00 | 0.00 | 55 | 1005.4 |
| 20260505191540 | 89 | 217 | 2.0 | 3.0 | 0.00 | 0.00 | 0.00 | 56 | 1005.5 |
| 20260505191038 | 89 | 165 | 1.0 | 3.0 | 0.00 | 0.00 | 0.00 | 57 | 1005.6 |
| 20260505190532 | 89 | 201 | 2.0 | 3.0 | 0.00 | 0.00 | 0.00 | 57 | 1005.5 |
| 20260505190029 | 89 | 172 | 1.0 | 5.0 | 0.00 | 0.00 | 0.00 | 57 | 1005.6 |
| 20260505185526 | 89 | 111 | 0.0 | 6.0 | 0.00 | 0.00 | 0.00 | 59 | 1005.7 |
| 20260505185022 | 88 | 129 | 2.0 | 6.0 | 0.00 | 0.00 | 0.00 | 58 | 1005.9 |
| 20260505184519 | 88 | 191 | 3.0 | 5.0 | 0.00 | 0.00 | 0.00 | 58 | 1005.6 |
| 20260505184016 | 89 | 132 | 3.0 | 3.0 | 0.00 | 0.00 | 0.00 | 59 | 1005.9 |
| 20260505183513 | 87 | 259 | 3.0 | 6.0 | 0.00 | 0.00 | 0.00 | 61 | 1006.0 |
| 20260505183010 | 87 | 192 | 2.0 | 6.0 | 0.00 | 0.00 | 0.00 | 62 | 1005.8 |
| 20260505182506 | 87 | 283 | 3.0 | 5.0 | 0.00 | 0.00 | 0.00 | 61 | 1005.9 |
| 20260505182003 | 87 | 220 | 3.0 | 7.0 | 0.00 | 0.00 | 0.00 | 60 | 1005.8 |
| 20260505181500 | 87 | 136 | 1.0 | 5.0 | 0.00 | 0.00 | 0.00 | 62 | 1005.9 |
| 20260505180956 | 86 | 155 | 2.0 | 3.0 | 0.00 | 0.00 | 0.00 | 62 | 1006.0 |
| 20260505180452 | 86 | 170 | 2.0 | 6.0 | 0.00 | 0.00 | 0.00 | 63 | 1006.1 |
| 20260505175950 | 86 | 115 | 3.0 | 5.0 | 0.00 | 0.00 | 0.00 | 62 | 1006.1 |
| 20260505175445 | 86 | 185 | 3.0 | 5.0 | 0.00 | 0.00 | 0.00 | 63 | 1006.1 |
| 20260505174942 | 85 | 181 | 2.0 | 3.0 | 0.00 | 0.00 | 0.00 | 63 | 1006.1 |
| 20260505174440 | 85 | 228 | 3.0 | 7.0 | 0.00 | 0.00 | 0.00 | 64 | 1006.3 |
| 20260505173936 | 86 | 113 | 3.0 | 5.0 | 0.00 | 0.00 | 0.00 | 63 | 1006.2 |
| 20260505173432 | 86 | 165 | 2.0 | 5.0 | 0.00 | 0.00 | 0.00 | 63 | 1006.1 |
| 20260505172929 | 85 | 216 | 2.0 | 5.0 | 0.00 | 0.00 | 0.00 | 64 | 1006.2 |
| 20260505172428 | 84 | 189 | 2.0 | 5.0 | 0.00 | 0.00 | 0.00 | 66 | 1006.2 |
| 20260505171926 | 83 | 152 | 2.0 | 6.0 | 0.00 | 0.00 | 0.00 | 67 | 1006.2 |
| 20260505171424 | 83 | 180 | 1.0 | 3.0 | 0.00 | 0.00 | 0.00 | 67 | 1006.3 |
| 20260505170920 | 83 | 219 | 2.0 | 5.0 | 0.00 | 0.00 | 0.00 | 67 | 1006.3 |
| 20260505170417 | 84 | 88 | 1.0 | 5.0 | 0.00 | 0.00 | 0.00 | 66 | 1006.3 |
| 20260505165912 | 84 | 158 | 2.0 | 5.0 | 0.00 | 0.00 | 0.00 | 65 | 1006.3 |
| 20260505165409 | 84 | 213 | 3.0 | 5.0 | 0.00 | 0.00 | 0.00 | 65 | 1006.5 |
| 20260505164904 | 84 | 126 | 1.0 | 3.0 | 0.00 | 0.00 | 0.00 | 66 | 1006.4 |
| 20260505164401 | 84 | 198 | 2.0 | 3.0 | 0.00 | 0.00 | 0.00 | 66 | 1006.4 |
| 20260505163859 | 83 | 201 | 2.0 | 3.0 | 0.00 | 0.00 | 0.00 | 67 | 1006.4 |
| 20260505163358 | 83 | 188 | 3.0 | 5.0 | 0.00 | 0.00 | 0.00 | 68 | 1006.2 |
| 20260505162856 | 83 | 196 | 2.0 | 7.0 | 0.00 | 0.00 | 0.00 | 68 | 1005.8 |
| 20260505162352 | 83 | 208 | 5.0 | 8.0 | 0.00 | 0.00 | 0.00 | 67 | 1005.8 |
| 20260505161849 | 84 | 170 | 2.0 | 3.0 | 0.00 | 0.00 | 0.00 | 67 | 1005.9 |
| 20260505161346 | 82 | 165 | 2.0 | 10.0 | 0.00 | 0.00 | 0.00 | 69 | 1005.8 |
| 20260505160843 | 82 | 246 | 3.0 | 7.0 | 0.00 | 0.00 | 0.00 | 70 | 1006.0 |
| 20260505160341 | 82 | 168 | 3.0 | 5.0 | 0.00 | 0.00 | 0.00 | 71 | 1006.0 |
| 20260505140358 | 75 | 154 | 3.0 | 8.0 | 0.00 | 0.00 | 0.00 | 80 | 1006.1 |
| 20260505124812 | 71 | 208 | 1.0 | 2.0 | 0.00 | 0.00 | 0.00 | 87 | 1006.0 |
| 20260505124309 | 71 | 144 | 2.0 | 3.0 | 0.00 | 0.00 | 0.00 | 88 | 1005.9 |